{"data":{"norad_id":64535,"intl_designator":"2025-135H","name":"ROADS 1","alt_names":[],"object_type":"PAYLOAD","status":"ACTIVE","operator":null,"country":"US","launch_date":"2025-06-23","launch_site_code":"AFWTR","launch_vehicle":null,"mission":null,"orbit_class":"UNKNOWN","rcs_meters":null,"size_class":null,"mass_kg":null,"dimensions":null,"purposes":[],"wikipedia_slug":null,"has_3d_model":false,"image_url":null,"decayed_at":null,"tle_current":{"epoch":"2026-05-24T19:16:24.966336Z","epoch_age_seconds":85916,"freshness":"FRESH","line1":"1 64535U 25135H   26144.80306674  .00005192  00000+0  22934-3 0  9999","line2":"2 64535  97.4647 260.0067 0003078 252.2511 107.8390 15.22164063 51306","mean_motion":15.22164063,"eccentricity":0.0003078,"inclination_deg":97.4647,"raan_deg":260.0067,"arg_perigee_deg":252.2511,"mean_anomaly_deg":107.839,"bstar":0.00022934,"rev_number":5130,"period_min":94.602154590481,"perigee_km":497.19754612765,"apogee_km":501.43130522529,"semimajor_km":6877.4514256765,"source":"CELESTRAK","updated_at":"2026-05-25T13:38:04.581445Z"}}}